Regional Weather Roundup
Issued by NWS Northern Indiana

Home | Current Version | Previous Version | Text Only | Print | Product List | Glossary Off
Versions: 1 2 3 4 5 6 7 8 9 10 11 12 13 14 15 16 17 18 19 20 21 22 23 24 25 26 27 28 29 30 31 32 33 34 35 36 37 38 39 40 41 42 43 44 45 46 47 48 49 50

000
ASUS43 KIWX 201010
RWRIWX

KIWX WEATHER ROUNDUP
NATIONAL WEATHER SERVICE NORTHERN INDIANA
500 AM EST FRI JAN 20 2017

NOTE: "FAIR" INDICATES FEW OR NO CLOUDS BELOW 12,000 FEET WITH NO
SIGNIFICANT WEATHER AND/OR OBSTRUCTIONS TO VISIBILITY.

* THESE STATIONS ARE NOT UNDER NWS QUALITY CONTROL. THEY ALSO MAY NOT
  REPORT WEATHER SUCH AS PRECIPITATION OR FOG.

INZ001>027-201100-
NORTHERN INDIANA

CITY           SKY/WX    TMP DP  RH WIND       PRES   REMARKS
VALPARAISO     LGT RAIN  39  39 100 E8        29.62S FOG
LAPORTE*       DRIZZLE   38  37  99 E7        29.62F
KNOX*          CLOUDY    37  34  87 E5        29.61F
SOUTH BEND     LGT RAIN  38  37  97 E8        29.64F FOG
GOSHEN         RAIN      37  34  89 E8        29.62F FOG
ROCHESTER*     RAIN      41  41 100 E8        29.61F
WARSAW*        RAIN      37  34  87 E9        29.61F
FORT WAYNE     LGT RAIN  39  36  89 E13       29.62F FOG
PERU/GRISSOM   LGT RAIN  41  41 100 E8        29.58S
MARION*        RAIN      39  39 100 E7        29.60F

$$
INZ028>050-201100-
CENTRAL INDIANA

CITY           SKY/WX    TMP DP  RH WIND       PRES   REMARKS
LAFAYETTE      LGT RAIN  42  42 100 E6        29.59S FOG
KOKOMO*        LGT RAIN  41  40  96 E5        29.60F FOG
MUNCIE*        LGT RAIN  43  42  97 E5        29.59F FOG
INDIANAPOLIS   LGT RAIN  47  45  93 S7        29.58F

$$
MIZ043>046-050>051-056>058-064>065-071>073-077>080-201100-
SOUTHWEST LOWER MICHIGAN

CITY           SKY/WX    TMP DP  RH WIND       PRES   REMARKS
BATTLE CREEK   LGT RAIN  36  35  96 E7        29.66F FOG
BENTON HARBOR  RAIN      39  36  89 NE5       29.65F FOG
COLDWATER*     MIX PCPN  36  36 100 E10       29.65F
HILLSDALE*     MIX PCPN  32  32 100 E10       29.65F WCI  24
HOLLAND        RAIN      36  34  92 NE6       29.69F
GRAND RAPIDS   LGT RAIN  35  32  88 E9        29.69F FOG     WCI  28
KALAMAZOO      LGT RAIN  38  35  89 E7        29.66S FOG
STURGIS*       LGT SNOW  37  36  96 E10G18    29.62F
THREE RIVERS*  LGT RAIN  37  37  97 E10       29.64F

$$
OHZ001>008-015>018-024>025-201100-
NORTHWEST OHIO

CITY           SKY/WX    TMP DP  RH WIND       PRES   REMARKS
DEFIANCE       LGT RAIN  35  34  96 NE13      29.64F FOG     WCI  26
FINDLAY        LGT RAIN  40  36  86 E16       29.62F FOG
TOLEDO EXPRESS RAIN      34  34 100 E15       29.67F FOG     WCI  24
TOLEDO METCALF LGT RAIN  36  35  96 NE12      29.70F FOG
LIMA           RAIN      40  40 100 E15G26    29.58F FOG

$$
AND FOR LAKE MICHIGAN COASTAL AND OPEN LAKE BUOY OBSERVATIONS

STATION/POSITION TEMP    WIND        PRES    VSBY  WAVE
                 AIR SEA DIR/SP/G                  HT/PER
                 (F)     (DEG/KT/KT) (MB)    (MI)  (FT/S)
CALUMET HARBOR    36      20/  7/ 10 1003.1F
MICHIGAN CITY     34      30/ 11/ 11   N/A
BURNS HARBOR      35      70/  9/ 10 1004.1F

$$
&&




USA.gov is the U.S. government's official web portal to all federal, state and local government web resources and services.